Flag for U.S.A. Weather past 2 weeks in Rochester, New York, U.S.A.

Now
36 °F

Passing clouds.


Feels Like: 30 °F
Forecast: 31 / 40 °F
Wind: 7 mph from Southeast

Location: Greater Rochester International Airport

Current Time: Dec 22, 2014 at 5:32:08 PM

Latest Report: Dec 22, 2014 at 4:54 PM


Visibility: 10 mi

Pressure: 30.14 "Hg

Humidity: 67%

Dew point: 26 °F

Location of RochesterLocation

Historic Weather in Rochester — Graph

°F

Rochester temperature yesterday

Maximum temperature yesterday: 36 °F (at 1:54 PM)
Minimum temperature yesterday: 27 °F (at 5:54 AM)
Average temperature yesterday: 31 °F

Past Weeks' High & Low Weather Summary

 TemperatureHumidityPressure
High44 °F (Dec 9, 12:54 PM)97% (Dec 14, 6:54 AM)30.75 "Hg (Dec 14, 6:54 AM)
Low22 °F (Dec 7, 9:54 PM)30% (Dec 8, 12:54 PM)29.71 "Hg (Dec 11, 4:03 AM)
Average32 °F80%30.10 "Hg
* Reported Dec 7 3:54 PM — Dec 22 3:54 PM, Rochester, Weather by CustomWeather, © 2014

Note: Actual official high and low records may vary slightly from our data, if they occured in-between our weather recording intervals... More about our weather records

Advertising

Rochester weather history for previous 24 hours

 ConditionsComfort  
Time TempWeatherWind HumidityBarometerVisibility
3:54 PM
Dec 22
38 °FBroken clouds.8 mph63%30.14 "Hg10 mi
2:54 PM40 °FPassing clouds.9 mph60%30.14 "Hg10 mi
1:54 PM39 °FPassing clouds.7 mph60%30.15 "Hg10 mi
12:54 PM37 °FPassing clouds.6 mph60%30.17 "Hg10 mi
11:54 AM34 °FScattered clouds.9 mph64%30.19 "Hg10 mi
10:54 AM32 °FPartly sunny.12 mph66%30.24 "Hg10 mi
9:54 AM30 °FPartly sunny.9 mph72%30.26 "Hg10 mi
8:54 AM28 °FPartly sunny.9 mph75%30.27 "Hg10 mi
7:54 AM27 °FBroken clouds.9 mph78%30.27 "Hg10 mi
6:54 AM28 °FPartly cloudy.9 mph75%30.28 "Hg10 mi
5:54 AM27 °FPassing clouds.6 mph75%30.28 "Hg10 mi
4:54 AM29 °FPassing clouds.5 mph69%30.28 "Hg10 mi
3:54 AM30 °FPassing clouds.9 mph69%30.29 "Hg10 mi
2:54 AM31 °FPassing clouds.7 mph67%30.31 "Hg10 mi
1:54 AM32 °FOvercast.10 mph64%30.30 "Hg10 mi
12:54 AM32 °FOvercast.8 mph64%30.32 "Hg10 mi
11:54 PM
Dec 21
32 °FOvercast.8 mph64%30.33 "Hg10 mi
10:54 PM32 °FOvercast.5 mph64%30.33 "Hg10 mi
9:54 PM32 °FOvercast.3 mph64%30.34 "Hg10 mi
8:54 PM32 °FOvercast.3 mph66%30.35 "Hg10 mi
7:54 PM32 °FOvercast.5 mph66%30.34 "Hg10 mi
6:54 PM33 °FOvercast.No wind61%30.34 "Hg10 mi
5:54 PM33 °FOvercast.No wind61%30.34 "Hg10 mi
Weather by CustomWeather, © 2014

See weather overviewHow to use our weather pages